Location: Chèvreville
(49.1099°N, 2.8495°E)
Time: 08:21:30
(UTC+00:00)

VELOX 1 - Pass Details

Date: 08 December 2023
Orbit: 608 x 622 km, 98.4° (Epoch: 24 February)

Event Time Altitude Azimuth Distance (km) Brightness Sun altitude
Rises 06:02:32 0° 160° (SSE) 2,857 ? -13.5°
Reaches altitude 10° 06:04:42 10° 159° (SSE) 1,957 ? -13.1°
Maximum altitude 06:08:56 77° 75° (ENE) 631 ? -12.5°
Drops below altitude 10° 06:13:14 10° 348° (NNW) 1,976 ? -11.8°
Enters shadow 06:15:22 - 347° (NNW) 2,863 ? -11.5°
